[[{"header":{"parameterUnit":"m.s-1","parameterCategory":1,"la1":30.2991,"la2":30.254,"lo1":-89.0895,"lo2":-89.0444,"dy":0.0017,"dx":0.0017,"nx":28,"ny":28,"refTime":"2025-04-09T09:00:00:Z","depth":0,"parameterNumber":2,"parameterNumberName":"U-component_of_WINDS"},"data":[0,0,0,0,0,0,0,0,0,0,0,0,0,0,0,0,0,0,0,0,0,0,0,0,0,0,0,0,0,0,0,0,0,0,0,0,0,0,0,0,0,0,0,0,0,0,0,0,0,0,0,0,0,0,0,0,0,0,0.7993,0.7994,0,0.8096,0.8097,0.8098,0.8174,0.8175,0.8175,0.8176,0.8285,0.8288,0.829,0,0,0,0,0,0,0,0,0,0,0,0,0,0.7865,0.7867,0.7993,0.7994,0.7995,0.8096,0.8097,0.8098,0.8174,0.8175,0.8175,0.8176,0.8285,0.8287,0.829,0,0,0,0,0,0,0,0,0,0,0,0,0,0.794,0.7868,0.7992,0.8045,0.8051,0.8095,0.8097,0.8099,0.8174,0.8175,0.8176,0.8177,0.8284,0.8287,0.8291,0.8293,0,0,0.8301,0.8303,0,0,0,0,0,0,0,0,0.7936,0.7944,0.8036,0.8041,0.8048,0.8123,0.8092,0.8164,0.8173,0.8127,0.8176,0.8177,0.8231,0.8239,0.8256,0.8298,0.8302,0.8302,0.8304,0.8305,0.8306,0,0,0,0,0,0,0,0.793,0.7941,0.8034,0.8037,0.8044,0.8065,0.8076,0.8106,0.8172,0.8131,0.8137,0.8148,0.8234,0.8253,0.8259,0.8304,0.8301,0.8305,0.8307,0.8308,0.8353,0.8353,0,0,0,0,0,0,0.7916,0.7936,0.803,0.8037,0.7993,0.8066,0.8079,0.8098,0.8172,0.8184,0.8147,0.8151,0.8246,0.8255,0.8263,0.8271,0.8305,0.8308,0.831,0.8354,0.8353,0.8352,0,0,0,0,0,0,0.7913,0.7924,0.8026,0.7988,0.8002,0.8067,0.8088,0.8099,0.8118,0.8184,0.8197,0.8153,0.8247,0.8259,0.8285,0.8276,0.831,0.8313,0.8355,0.8354,0.8353,0.8286,0,0,0,0,0,0,0.7909,0.7923,0.7923,0.7987,0.8004,0.8044,0.8087,0.8101,0.8123,0.8129,0.8193,0.8205,0.8249,0.8279,0.8288,0.8281,0.8316,0.8356,0.8355,0.8353,0.8289,0.8282,0.8276,0,0,0,0,0,0.7905,0.7901,0.7923,0.7934,0.8006,0.8044,0.8053,0.8103,0.8122,0.8124,0.8166,0.8203,0.8275,0.8281,0.8292,0.8286,0.8357,0.8355,0.8353,0.8292,0.8283,0.8276,0,0,0,0,0,0,0.7835,0.791,0.7935,0.7952,0.799,0.8056,0.806,0.8093,0.8128,0.8133,0.8194,0.8208,0.8228,0.826,0.8265,0.8292,0.8321,0.8321,0.827,0.8263,0.8257,0.8249,0.8319,0,0,0,0,0,0.7821,0.7845,0.791,0.7918,0.7936,0.7994,0.8013,0.8047,0.8091,0.8108,0.8153,0.8194,0.8227,0.8247,0.828,0.8294,0.8309,0.8295,0.8289,0.8283,0.8283,0.8293,0.8288,0.8346,0.8346,0.8346,0,0,0.7794,0.7838,0.7849,0.7905,0.7939,0.7963,0.8008,0.8031,0.805,0.8112,0.8139,0.8173,0.8224,0.8244,0.8255,0.8271,0.827,0.8281,0.8276,0.8279,0.829,0.8285,0.828,0.8344,0.8345,0.8345,0,0,0.7756,0.7791,0.7802,0.7835,0.7886,0.7925,0.7927,0.7988,0.8013,0.8041,0.8088,0.8112,0.8166,0.82,0.8225,0.82,0.8235,0.8209,0.8176,0.8185,0.8181,0.8177,0.8169,0.8165,0.8208,0.8208,0.8208,0,0.7716,0.7752,0.7804,0.7824,0.7848,0.7904,0.7916,0.7947,0.8006,0.8022,0.8039,0.8108,0.8146,0.8175,0.8168,0.8186,0.8192,0.8202,0.8177,0.8174,0.8171,0.8164,0.816,0.8205,0.8205,0.8205,0.8206,0,0.7701,0.7725,0.7728,0.7783,0.7807,0.7823,0.7878,0.7897,0.793,0.7967,0.7995,0.8043,0.8087,0.8096,0.8129,0.813,0.8138,0.8165,0.8196,0.8161,0.8155,0.8153,0.82,0.8201,0.8202,0.8203,0,0,0.7622,0.7704,0.7705,0.773,0.779,0.7811,0.783,0.7872,0.7887,0.7926,0.7945,0.7989,0.8014,0.8042,0.8079,0.8087,0.8065,0.8114,0.8116,0.8103,0.8069,0.8048,0.8044,0.8088,0.8088,0.8088,0.8065,0,0.7593,0.7629,0.7676,0.7697,0.7721,0.7775,0.7792,0.7831,0.7867,0.7893,0.7933,0.7964,0.7995,0.8012,0.8022,0.8065,0.8059,0.8067,0.8107,0.8107,0.8092,0.8041,0.8019,0.7995,0.8063,0.8063,0.8062,0,0.7565,0.76,0.7622,0.7681,0.7693,0.7707,0.7749,0.7773,0.7819,0.7845,0.7875,0.7915,0.7939,0.7966,0.8001,0.8006,0.8025,0.8048,0.8049,0.8055,0.8083,0.8045,0.7989,0.7985,0.8059,0.8059,0.806,0,0.7505,0.7558,0.7579,0.7599,0.7667,0.7676,0.7705,0.7752,0.7774,0.7812,0.7827,0.7867,0.7889,0.792,0.797,0.7985,0.8,0.803,0.8022,0.8021,0.8023,0.8022,0.7969,0.8035,0.8035,0.8035,0.8035,0,0.7469,0.748,0.7553,0.7565,0.758,0.7635,0.7649,0.7683,0.7725,0.7746,0.7795,0.7814,0.7879,0.7906,0.7946,0.7969,0.7979,0.8,0.8011,0.7996,0.7993,0.801,0.8012,0.8034,0.8034,0.8034,0.8035,0,0.7405,0.7453,0.7479,0.7542,0.7558,0.7566,0.762,0.7635,0.7673,0.7699,0.7709,0.7769,0.7803,0.7856,0.7907,0.7933,0.795,0.7967,0.7934,0.794,0.7929,0.7929,0.7884,0.7881,0.7948,0.7948,0.7947,0,0.7378,0.7388,0.7451,0.7468,0.7495,0.7522,0.7545,0.7599,0.7621,0.7674,0.7683,0.7721,0.7754,0.7807,0.7856,0.7895,0.7913,0.7895,0.792,0.7904,0.7913,0.7912,0.7914,0.7889,0.7888,0.7887,0.7887,0,0.7326,0.7349,0.7379,0.7417,0.7443,0.7476,0.7512,0.7523,0.7586,0.7608,0.7643,0.7668,0.7719,0.7757,0.7802,0.7834,0.7871,0.7878,0.7879,0.7864,0.7844,0.7855,0.7918,0.7879,0.788,0.7881,0.7881,0.7881,0.728,0.7291,0.7337,0.7369,0.7402,0.7434,0.7451,0.7491,0.752,0.7565,0.7596,0.7629,0.7676,0.7741,0.7771,0.7798,0.7814,0.7815,0.7815,0.7814,0.7808,0.7839,0.7807,0.7807,0.7808,0.7808,0.7808,0,0.723,0.7262,0.7291,0.7339,0.7364,0.7395,0.7437,0.7456,0.7484,0.7524,0.7555,0.7596,0.7632,0.7684,0.7724,0.7737,0.7755,0.7745,0.7745,0.7752,0.7792,0.7788,0.773,0.773,0.773,0.773,0.773,0.773,0.7207,0.7228,0.7257,0.7296,0.7329,0.736,0.7381,0.7411,0.7444,0.7486,0.7516,0.7549,0.7594,0.7638,0.7673,0.7688,0.7701,0.7686,0.7706,0.7742,0.7749,0.7756,0.7752,0.7688,0.7688,0.7664,0.7663,0.7663]},{"header":{"parameterUnit":"m.s-1","parameterCategory":1,"la1":30.2991,"la2":30.254,"lo1":-89.0895,"lo2":-89.0444,"dy":0.0017,"dx":0.0017,"nx":28,"ny":28,"refTime":"2025-04-09T09:00:00:Z","depth":0,"parameterNumber":3,"parameterNumberName":"V-component_of_WINDS"},"data":[0,0,0,0,0,0,0,0,0,0,0,0,0,0,0,0,0,0,0,0,0,0,0,0,0,0,0,0,0,0,0,0,0,0,0,0,0,0,0,0,0,0,0,0,0,0,0,0,0,0,0,0,0,0,0,0,0,0,1.7371,1.7371,0,1.7383,1.7384,1.7384,1.7358,1.7357,1.7356,1.7355,1.7365,1.7367,1.7368,0,0,0,0,0,0,0,0,0,0,0,0,0,1.7318,1.732,1.7371,1.7371,1.7371,1.7383,1.7384,1.7384,1.7358,1.7357,1.7356,1.7355,1.7365,1.7366,1.7368,0,0,0,0,0,0,0,0,0,0,0,0,0,1.7337,1.732,1.7371,1.736,1.7359,1.7383,1.7384,1.7384,1.7358,1.7357,1.7356,1.7355,1.7365,1.7366,1.7368,1.7403,0,0,1.7373,1.7373,0,0,0,0,0,0,0,0,1.7336,1.7339,1.7361,1.7361,1.736,1.7368,1.7369,1.739,1.7359,1.7358,1.7355,1.7354,1.7367,1.7368,1.7373,1.7403,1.7403,1.7373,1.7374,1.7374,1.7375,0,0,0,0,0,0,0,1.7335,1.7338,1.7376,1.7362,1.7361,1.7352,1.7354,1.7373,1.737,1.7358,1.7357,1.7359,1.7366,1.7372,1.7373,1.7404,1.7373,1.7374,1.7375,1.7376,1.7456,1.7457,0,0,0,0,0,0,1.7335,1.7337,1.7375,1.7376,1.7345,1.7354,1.7356,1.7366,1.7369,1.7369,1.736,1.7357,1.737,1.7372,1.7374,1.741,1.7374,1.7376,1.7377,1.7455,1.7456,1.7457,0,0,0,0,0,0,1.7334,1.7339,1.7375,1.7356,1.736,1.7357,1.7369,1.7367,1.7373,1.737,1.7369,1.7366,1.7369,1.7372,1.7394,1.7411,1.7377,1.7378,1.7453,1.7455,1.7457,1.7487,0,0,0,0,0,0,1.7333,1.7339,1.7354,1.7357,1.7361,1.7397,1.737,1.7369,1.7376,1.7373,1.7376,1.7375,1.7368,1.7392,1.7396,1.7412,1.7379,1.7452,1.7454,1.7456,1.7484,1.7489,1.7494,0,0,0,0,0,1.7331,1.7363,1.7355,1.736,1.738,1.7398,1.7401,1.7393,1.7378,1.7391,1.7388,1.7375,1.7408,1.7395,1.7399,1.7416,1.7451,1.7453,1.7456,1.7482,1.7488,1.7494,0,0,0,0,0,0,1.7362,1.7363,1.7354,1.7388,1.7393,1.7394,1.7411,1.74,1.741,1.7406,1.7395,1.7396,1.7419,1.742,1.7405,1.7446,1.7427,1.743,1.7445,1.7451,1.7456,1.7454,1.738,0,0,0,0,0,1.7373,1.7389,1.7388,1.7418,1.7421,1.7415,1.7423,1.7416,1.7421,1.7423,1.7422,1.7426,1.7436,1.7444,1.7454,1.7484,1.7482,1.7497,1.7502,1.7506,1.7509,1.752,1.7525,1.7466,1.7466,1.7466,0,0,1.7395,1.7397,1.7409,1.7424,1.7427,1.7441,1.7418,1.7435,1.7445,1.7425,1.7446,1.7445,1.7448,1.7474,1.7485,1.7475,1.7524,1.7509,1.7513,1.7513,1.7523,1.7528,1.7533,1.7468,1.7468,1.7467,0,0,1.7442,1.7448,1.747,1.7473,1.7478,1.7473,1.7479,1.748,1.7479,1.75,1.7483,1.7494,1.7514,1.7515,1.7519,1.7561,1.7548,1.7565,1.7589,1.76,1.7604,1.7608,1.762,1.7625,1.7568,1.7568,1.7568,0,1.7469,1.7492,1.7483,1.75,1.7505,1.7488,1.7508,1.7512,1.7519,1.7522,1.7511,1.7532,1.7534,1.7557,1.7566,1.7571,1.7574,1.7564,1.7605,1.7609,1.7612,1.7623,1.7628,1.757,1.757,1.7569,1.7569,0,1.7522,1.7538,1.7555,1.7562,1.7569,1.7588,1.758,1.7588,1.7579,1.7574,1.7593,1.7593,1.7601,1.7606,1.7599,1.7627,1.762,1.7607,1.7587,1.762,1.7629,1.7634,1.7572,1.7572,1.7571,1.7571,0,0,1.7591,1.7589,1.7596,1.7596,1.7598,1.7609,1.7625,1.7633,1.7638,1.7643,1.7654,1.7669,1.7656,1.766,1.7651,1.7661,1.7689,1.7647,1.7646,1.7652,1.7716,1.7723,1.7729,1.7681,1.7682,1.7683,1.7714,0,1.7634,1.7663,1.7653,1.7681,1.7693,1.7674,1.7688,1.7689,1.7684,1.7692,1.7686,1.7696,1.768,1.7681,1.769,1.7684,1.7702,1.7682,1.7688,1.7689,1.7686,1.7734,1.7744,1.7774,1.7718,1.7719,1.772,0,1.769,1.7695,1.7724,1.772,1.7724,1.7737,1.774,1.7749,1.7748,1.7743,1.7746,1.7734,1.7746,1.7727,1.7742,1.7728,1.773,1.7727,1.7728,1.7727,1.7705,1.7732,1.7784,1.7787,1.7726,1.7726,1.7725,0,1.7731,1.7747,1.7764,1.7766,1.7763,1.7771,1.777,1.7768,1.7771,1.7774,1.7775,1.778,1.7781,1.7783,1.7771,1.7759,1.7786,1.7767,1.778,1.778,1.7786,1.7786,1.7836,1.7791,1.7791,1.7791,1.7791,0,1.778,1.7797,1.7783,1.7794,1.7811,1.7799,1.7816,1.7812,1.781,1.7818,1.7802,1.781,1.7795,1.78,1.7791,1.7802,1.7804,1.7798,1.7795,1.7798,1.7799,1.7798,1.7795,1.7792,1.7792,1.7792,1.7791,0,1.7829,1.7821,1.7838,1.7833,1.7831,1.7844,1.7838,1.7846,1.784,1.785,1.7851,1.784,1.7845,1.7833,1.7837,1.783,1.7846,1.7841,1.7846,1.7843,1.7856,1.7854,1.7907,1.7912,1.7866,1.7866,1.7867,0,1.786,1.7872,1.7867,1.7871,1.787,1.7878,1.788,1.7867,1.787,1.7868,1.7876,1.7879,1.7881,1.7888,1.7879,1.7881,1.7874,1.7892,1.7874,1.7875,1.787,1.7869,1.7868,1.7895,1.7896,1.7896,1.7897,0,1.7912,1.7906,1.7912,1.7914,1.7918,1.7919,1.7919,1.7923,1.7909,1.7913,1.7917,1.7918,1.792,1.7922,1.7921,1.7917,1.7903,1.7902,1.7905,1.7907,1.7909,1.7905,1.7853,1.7901,1.7901,1.79,1.79,1.79,1.7951,1.7959,1.7956,1.7961,1.7959,1.7959,1.7965,1.7958,1.7962,1.7963,1.7954,1.7959,1.7954,1.7951,1.7948,1.795,1.7941,1.7946,1.7947,1.7948,1.7948,1.791,1.795,1.795,1.795,1.795,1.795,0,1.8,1.7996,1.8001,1.8,1.8003,1.7991,1.7989,1.7992,1.7997,1.7993,1.7995,1.7997,1.7998,1.7989,1.7988,1.7991,1.7984,1.7991,1.799,1.7988,1.7958,1.7954,1.7996,1.7996,1.7996,1.7996,1.7996,1.7996,1.8026,1.8038,1.8031,1.8041,1.8037,1.8042,1.8042,1.804,1.8037,1.8041,1.8041,1.8035,1.8028,1.8026,1.8025,1.8022,1.8021,1.8029,1.8024,1.7995,1.7991,1.7986,1.7983,1.803,1.803,1.8053,1.8054,1.8054]}]]